Location: Christchurch
(43.5330°S, 172.6330°E)
Time: 15:06:52
(UTC+13:00)

SPOT 3 Rocket - Pass Details

Date: 24 January 2019
Orbit: 780 x 794 km, 98.8° (Epoch: 16 February)

Event Time Altitude Azimuth Distance (km) Brightness Sun altitude
Rises 21:56:58 0° 168° (SSE) 3,321 7.2 -8.9°
Reaches altitude 10° 21:59:19 10° 169° (SSE) 2,383 6.4 -9.2°
Maximum altitude 22:04:34 78° 253° (WSW) 817 3.8 -10.0°
Drops below altitude 10° 22:09:45 10° 339° (NNW) 2,343 5.8 -10.7°
Sets 22:12:02 0° 340° (NNW) 3,262 6.6 -11.0°
